[Iaude] MPEC V143: 2023 VF4 [a=1.44,e=0.45,i=2.3,H=25.6]
    mpec at marsden.cfa.harvard.edu 
    mpec at marsden.cfa.harvard.edu
       
    Thu Nov  9 09:50:38 EST 2023
    
    
  
M.P.E.C. 2023-V143                             Issued 2023 November 9, 14:48 UT
     The Minor Planet Electronic Circulars contain information on unusual
         minor planets, routine data on comets and natural satellites,
         and occasional editorial announcements.  They are published
    on behalf of Division F of the International Astronomical Union by the
          Minor Planet Center, Smithsonian Astrophysical Observatory,
                          Cambridge, MA 02138, U.S.A.
			  
             Prepared using the Tamkin Foundation Computer Network
                              MPC at CFA.HARVARD.EDU
            URL https://www.minorplanetcenter.net/    ISSN 1523-6714
                                    2023 VF4                                    
Observations:
     K23V04F*1C2023 11 08.19024623 40 54.336-01 16 24.17         19.59GVEV143G96
     K23V04F 1C2023 11 08.19541423 41 11.440-01 15 06.26         20.23GVEV143G96
     K23V04F 1C2023 11 08.20057723 41 28.680-01 13 47.93         19.99GVEV143G96
     K23V04F KC2023 11 08.23269223 43 15.085-01 05 45.67         18.94GVEV143I52
     K23V04F KC2023 11 08.23322023 43 16.835-01 05 38.00         19.18GVEV143I52
     K23V04F KC2023 11 08.23373323 43 18.484-01 05 30.23         19.56GVEV143I52
     K23V04F KC2023 11 08.23425023 43 20.212-01 05 22.42         20.29GVEV143I52
     K23V04F KC2023 11 08.28068623 45 52.355-00 53 55.39         19.02GVEV143I52
     K23V04F KC2023 11 08.28171923 45 55.732-00 53 40.24         18.97GVEV143I52
     K23V04F KC2023 11 08.28274523 45 59.087-00 53 25.08         19.20GVEV143I52
     K23V04F KC2023 11 08.28378423 46 02.456-00 53 09.78         19.85GVEV143I52
     K23V04F KB2023 11 08.74313 00 10 05.19 +00 49 32.1                ZEV143106
     K23V04F hC2023 11 08.74466300 10 09.54 +00 49 54.3          19.5 GVEV143L01
     K23V04F hC2023 11 08.74626800 10 14.04 +00 50 14.0          19.6 GVEV143L01
     K23V04F hC2023 11 08.74762800 10 17.78 +00 50 30.8          19.2 GVEV143L01
     K23V04F KB2023 11 08.74832 00 10 19.52 +00 50 36.7          18.0 RZEV143106
     K23V04F hC2023 11 08.74972800 10 23.55 +00 50 56.7          19.6 GVEV143L01
     K23V04F KB2023 11 08.75350 00 10 33.81 +00 51 41.4                ZEV143106
     K23V04F KB2023 11 08.75913 00 10 49.26 +00 52 51.2          18.1 RZEV143106
     K23V04F KC2023 11 08.77189200 11 25.40 +00 55 28.5          18.6 GVEV143L06
     K23V04F KC2023 11 08.77275800 11 27.78 +00 55 39.3          18.4 GVEV143L06
     K23V04F KC2023 11 08.77387200 11 30.81 +00 55 52.7          18.5 GVEV143L06
     K23V04F tB2023 11 08.81673600 13 26.37 +01 04 39.2          18.6 GVEV143130
     K23V04F tB2023 11 08.82379100 13 45.25 +01 06 04.6          19.1 GVEV143130
     K23V04F KC2023 11 08.84104400 14 30.96 +01 09 38.4          18.7 GVEV143104
     K23V04F KC2023 11 08.84509700 14 41.72 +01 10 26.7                VEV143104
     K23V04F 1C2023 11 08.85186 00 14 59.51 +01 11 21.0          19.3 VXEV143033
     K23V04F 1C2023 11 08.85214 00 15 00.23 +01 11 24.7          19.8 VXEV143033
     K23V04F KC2023 11 08.85320700 15 03.16 +01 12 04.2          18.5 GVEV143104
     K23V04F KC2023 11 08.86655000 15 38.76 +01 14 37.7                VEV143203
     K23V04F KC2023 11 08.87642200 16 04.64 +01 16 35.0          19.2 GVEV143203
     K23V04F KB2023 11 08.87737600 16 09.75 +01 16 52.1          19.0 GXEV143958
     K23V04F KB2023 11 08.88181600 16 21.33 +01 17 44.8          19.1 GXEV143958
     K23V04F KB2023 11 08.88622800 16 32.83 +01 18 39.4          18.9 GXEV143958
     K23V04F KC2023 11 08.90203800 17 11.53 +01 21 35.7                VEV143204
     K23V04F KC2023 11 08.90618600 17 22.30 +01 22 24.2                VEV143204
     K23V04F KC2023 11 08.90802 00 17 24.48 +01 23 17.7          18.9 VqEV143L90
     K23V04F KC2023 11 08.91031500 17 33.02 +01 23 12.7          19.2 GVEV143204
     K23V04F KC2023 11 08.91552 00 17 43.87 +01 24 44.8          18.1 VqEV143L90
     K23V04F KC2023 11 08.92301 00 18 03.12 +01 26 06.1          18.7 VqEV143L90
     K23V04F KC2023 11 09.03780500 23 20.42 +01 47 54.2          19.4 GVEV143H21
     K23V04F KC2023 11 09.03921300 23 23.89 +01 48 09.9          19.3 GVEV143H21
     K23V04F KC2023 11 09.04062200 23 27.37 +01 48 25.5          20.0 GVEV143H21
     K23V04F KC2023 11 09.04203100 23 30.83 +01 48 41.5          19.3 GVEV143H21
     K23V04F KC2023 11 09.08841800 25 29.14 +01 57 31.9          19.3 GXEV143858
     K23V04F KC2023 11 09.09253000 25 39.04 +01 58 16.9          19.1 GXEV143858
     K23V04F KC2023 11 09.09731000 25 50.62 +01 59 09.4          19.7 GXEV143858
     K23V04F mC2023 11 09.10672200 26 14.676+02 01 03.25         19.12GVEV143I52
     K23V04F mC2023 11 09.10689300 26 15.104+02 01 05.16         19.39GVEV143I52
     K23V04F mC2023 11 09.10706200 26 15.464+02 01 06.82         19.24GVEV143I52
     K23V04F mC2023 11 09.10723200 26 15.893+02 01 08.98         19.21GVEV143I52
     K23V04F KC2023 11 09.14282 00 27 42.775+02 06 51.70         19.0 GVEV143U52
     K23V04F KC2023 11 09.14657 00 27 51.624+02 07 31.66         19.2 GVEV143U52
     K23V04F KC2023 11 09.15031 00 28 00.526+02 08 11.08         18.8 GVEV143U52
     K23V04F KB2023 11 09.17931 00 29 01.52 +02 13 31.2          19.0 GVEV143734
     K23V04F KB2023 11 09.18780 00 29 21.24 +02 15 00.3          19.1 GVEV143734
     K23V04F KB2023 11 09.19628 00 29 40.93 +02 16 29.3          19.5 GVEV143734
Observer details:
033 Karl Schwarzschild Observatory, Tautenburg.  Observers S. Melnikov, C.
    Hogner, F. Ludwig, M. Hartmann, B. Stecklum.  Measurer B. Stecklum.
    1.34-m f/3 Schmidt + CCD.
104 San Marcello Pistoiese.  Observers P. Bacci, M. Maestripieri.  Measurers
    P. Bacci, L. Tesi, G. Fagioli.  0.60-m F4 Reflector + CCD.
106 Crni Vrh.  Observer H. Mikuz.  0.60-m f/3.3 reflector + CMO.
130 Lumezzane.  Observers A. Coffano, W. Marinello, M. Micheli, G. Pizzetti,
    A. Soffiantini.  Measurers W. Marinello, G. Pizzetti.  0.40-m f/6
    reflector + CCD.
203 GiaGa Observatory.  Observers S. Foglia, G. Galli.  Measurer G. Galli.
    0.36-m f/5.76 Schmidt-Cassegrain + CCD.
204 Schiaparelli Observatory.  Observers L. Buzzi, G. Galli.  0.84-m f/3.5
    reflector + CCD.
734 Farpoint Observatory, Eskridge.  Observer .
858 Tebbutt Observatory, Edgewood.  Observer F. B. Zoltowski.  0.51-m f/8.1
    Schmidt-Cassegrain + CCD.
958 Observatoire de Dax.  Observer P. Dupouy.  0.50-m f/4.5 Reflector + CMO.
G96 Mt. Lemmon Survey.  Observer D. Rankin.  Measurers E. C. Beshore, D. Fay,
    J. B. Fazekas, D. C. Fuls, A. R. Gibbs, A. D. Grauer, H. Groeller, J. K.
    Hogan, R. A. Kowalski, S. M. Larson, G. J. Leonard, D. Rankin, R. L.
    Seaman, F. C. Shelly, K. W. Wierzchos.  1.5-m reflector + 10K CCD.
H21 Astronomical Research Observatory, Westfield.  Observer R. Holmes.
    Measurers T. Linder, R. Holmes, L. Horn.  0.76-m f/3.0 astrograph + CCD.
I52 Steward Observatory, Mt. Lemmon Station.  Observer H. Groeller.  Measurers
    E. C. Beshore, D. Fay, J. B. Fazekas, D. C. Fuls, A. R. Gibbs, A. D.
    Grauer, H. Groeller, J. K. Hogan, R. A. Kowalski, S. M. Larson, G. J.
    Leonard, D. Rankin, R. L. Seaman, F. C. Shelly, K. W. Wierzchos.  1.0-m
    prime focus + CCD.
L01 Visnjan Observatory, Tican.  Observer K. Korlevic.  1.0-m f/2.9 reflector
    + CCD.
L06 Sormano 2 Observatory, Bellagio Via Lattea.  Observer G. Ventre.  Measurer
    P. Sicoli.  0.36m Schmidt Cassegrain + CCD.
L90 ABObservatory, Rosarno.  Observer A. Brosio.  0.30-m f/4.0 reflector +
    CCD.
U52 Shasta Valley Observatory, Grenada.  Observers J. E. Rogers, B. Haeusler.
    Measurers J. E. Rogers, D. Parrott.  0.30-m f/5.2 Helin Telescope + CCD.
Orbital elements:
2023 VF4                                                 Earth MOID = 0.0018 AU
Epoch 2023 Sept. 13.0 TT = JDT 2460200.5                Veres                   
M 356.56755              (2000.0)            P               Q                  
n   0.56815457     Peri.  108.95253     +0.89440297     +0.44640848             
a   1.4437491      Node   224.54530     -0.42374257     +0.82599259             
e   0.4468865      Incl.    2.25646     -0.14312777     +0.34417395             
P   1.73           H   25.68          G   0.15           U   7                  
Residuals in seconds of arc
231108 G96  0.0   0.5-    231108 L06  0.8+  0.3-    231108 L90  0.2-  0.2+
231108 G96 (1.7-  0.6-)   231108 L06  1.0+  0.2-    231108 L90 (1.2-  5.7-)
231108 G96  0.8-  0.2-    231108 L06  0.8+  0.5-    231109 H21  0.1+  0.0
231108 I52  1.0+  0.5+    231108 130  0.1+  0.4+    231109 H21  0.1+  0.1-
231108 I52  1.1+  0.3+    231108 130  0.4+  0.3+    231109 H21  0.1+  0.2-
231108 I52  0.5+  0.4+    231108 104  0.5-  0.6-    231109 H21  0.1-  0.1+
231108 I52  0.9+  0.5+    231108 104  0.1-  0.9-    231109 858  0.0   0.1+
231108 I52  0.4+  0.2+    231108 033  1.5+  0.2-    231109 858  0.5-  0.1+
231108 I52  0.5+  0.2+    231108 033  1.2+  0.1+    231109 858  0.3+  0.4+
231108 I52  0.7+  0.3+    231108 104  0.3+  0.5-    231109 I52  0.1-  0.0
231108 I52  0.5+  0.3+    231108 203  0.3-  0.1-    231109 I52  0.2+  0.0
231108 106  0.2-  0.0     231108 203  0.4-  0.0     231109 I52  0.5-  0.2-
231108 L01  1.1-  0.4+    231108 958  1.6-  2.0-    231109 I52  0.2-  0.2+
231108 L01  0.1-  0.1+    231108 958  1.8-  1.8-    231109 U52  0.3+  0.4+
231108 L01  0.3-  0.1-    231108 958  1.8-  0.6+    231109 U52  0.5-  0.2+
231108 106  0.2-  0.1-    231108 204  0.2-  0.1+    231109 U52  0.2+  0.4-
231108 L01  0.5-  0.3-    231108 204  0.2-  0.0     231109 734  0.3+  0.0
231108 106  0.1+  0.2+    231108 L90  0.2-  0.6+    231109 734  0.2-  0.1-
231108 106  0.1-  0.1+    231108 204  0.0   0.2+    231109 734  0.0   0.1+
Ephemeris:
2023 VF4                 a,e,i = 1.44, 0.45, 2                   q = 0.7986
Date    TT    R. A. (2000) Decl.     Delta      r    Elong.  Phase     V
2023 10 10    15 33 02.3 -13 35 02   0.2139  0.8420    38.5   132.4    27.9
...
2023 10 25    16 11 01.9 -14 40 20   0.09504 0.9164    33.1   143.7    27.7
...
2023 11 02    17 32 17.6 -16 08 31   0.03847 0.9655    44.8   133.6    24.6
...
2023 11 08    23 29 35.4 -02 02 23   0.02304 1.0051   127.2    51.7    19.4
2023 11 09    00 21 32.2 +01 43 57   0.02750 1.0119   139.6    39.4    19.5
2023 11 10    00 57 45.9 +04 19 05   0.03304 1.0187   147.9    31.1    19.6
...
2023 11 16    02 22 09.5 +09 48 06   0.07409 1.0602   163.0    15.9    21.0
...
2023 11 24    02 51 13.7 +11 32 25   0.1352  1.1169   162.1    15.7    22.4
...
2023 12 09    03 11 35.3 +13 01 44   0.2628  1.2240   152.4    21.9    24.3
M. P. C. Staff               (C) Copyright 2023 MPC           M.P.E.C. 2023-V143
    
    
More information about the Iaude
mailing list